Elefsis, Greece

12:24 PM EET on February 25, 2018 (GMT +0200)
Elefsis Air Base

Weather History for LGEL - October, 2012

Change the Weather History Date:

Sunday, October 21, 2012

  Actual Average Record
Temperature  
Mean Temperature 68 °F -  
Max Temperature 75 °F 66 °F 86 °F (2003)
Min Temperature 60 °F 51 °F 42 °F (1997)
Cooling Degree Days 2    
Growing Degree Days 18 (Base 50)    
Moisture  
Dew Point 48 °F    
Average Humidity 50    
Maximum Humidity 68    
Minimum Humidity 33    
Precipitation  
Precipitation 0.00 in - - ()
Sea Level Pressure  
Sea Level Pressure 30.00 in    
Wind  
Wind Speed 6 mph ()    
Max Wind Speed 17 mph    
Max Gust Speed 32 mph    
Visibility 6.2 miles    
Events      
Averages and records for this station are not official NWS values.
T = Trace of Precipitation, MM = Missing Value Source: Averaged Metar Reports

Daily Weather History Graph

Daily Weather History Graph

Search for Another Location

Airport or City:

Trip Planner

Search our weather history database for the weather conditions in past years. The results will help you decide how hot, cold, wet, or windy it might be!

Date:

Astronomy

Oct. 21, 2012 Rise Set
Actual Time 7:40 AM EEST 6:39 PM EEST
Civil Twilight 7:13 AM EEST 7:06 PM EEST
Nautical Twilight 6:42 AM EEST 7:37 PM EEST
Astronomical Twilight 6:12 AM EEST 8:07 PM EEST
Moon 1:45 PM EEST (10/21) No Moon Set
Length of Visible Light 11h 52m
Length of Day
10h 59m
Waxing Crescent, 41% of the Moon is Illuminated
Oct 21
Waxing Crescent
Oct 22
First Quarter
Oct 29
Full
Nov 7
Last Quarter
Nov 14
New

Hourly Weather History & Observations

Time (EEST) Temp. Dew Point Humidity Pressure Visibility Wind Dir Wind Speed Gust Speed Precip Events Conditions
12:50 AM 64.4 °F 51.8 °F 64% 30.04 in - Calm Calm - N/A   Clear
1:50 AM 64.4 °F 50.0 °F 59% 30.04 in - Calm Calm - N/A   Clear
2:50 AM 64.4 °F 48.2 °F 56% 30.01 in - Calm Calm - N/A   Clear
3:50 AM 62.6 °F 48.2 °F 59% 30.01 in - Calm Calm - N/A   Clear
4:50 AM 60.8 °F 48.2 °F 63% 30.01 in - Calm Calm - N/A   Clear
5:50 AM 62.6 °F 51.8 °F 68% 30.01 in - Calm Calm - N/A   Clear
6:20 AM 62.6 °F 51.8 °F 68% 30.01 in - Calm Calm - N/A   Clear
6:50 AM 62.6 °F 51.8 °F 68% 30.01 in - Calm Calm - N/A   Clear
7:20 AM 64.4 °F 51.8 °F 64% 30.01 in 6.2 mi NNW 4.6 mph - N/A   Partly Cloudy
7:50 AM 64.4 °F 50.0 °F 59% 30.01 in 6.2 mi North 5.8 mph - N/A   Partly Cloudy
8:20 AM 66.2 °F 48.2 °F 52% 30.01 in 6.2 mi NNW 5.8 mph - N/A   Partly Cloudy
8:50 AM 68.0 °F 50.0 °F 52% 30.01 in 6.2 mi North 4.6 mph - N/A   Partly Cloudy
9:20 AM 68.0 °F 50.0 °F 52% 30.01 in 6.2 mi NNW 9.2 mph - N/A   Partly Cloudy
9:50 AM 69.8 °F 50.0 °F 49% 30.04 in 6.2 mi North 11.5 mph - N/A   Partly Cloudy
10:20 AM 69.8 °F 50.0 °F 49% 30.01 in 6.2 mi North 12.7 mph - N/A   Scattered Clouds
10:50 AM 71.6 °F 50.0 °F 46% 30.04 in 6.2 mi North 13.8 mph - N/A   Scattered Clouds
11:20 AM 71.6 °F 50.0 °F 46% 30.04 in 6.2 mi North 13.8 mph - N/A   Scattered Clouds
11:50 AM 73.4 °F 48.2 °F 41% 30.01 in 6.2 mi North 12.7 mph 27.6 mph N/A   Scattered Clouds
12:20 PM 73.4 °F 46.4 °F 38% 30.01 in 6.2 mi North 17.3 mph 32.2 mph N/A   Scattered Clouds
12:50 PM 75.2 °F 44.6 °F 34% 30.01 in 6.2 mi North 15.0 mph 26.5 mph N/A   Scattered Clouds
1:20 PM 73.4 °F 44.6 °F 36% 29.98 in 6.2 mi North 12.7 mph 24.2 mph N/A   Mostly Cloudy
1:50 PM 71.6 °F 46.4 °F 41% 30.01 in 6.2 mi North 12.7 mph - N/A   Mostly Cloudy
2:20 PM 73.4 °F 42.8 °F 33% 29.98 in 6.2 mi North 15.0 mph 26.5 mph N/A   Mostly Cloudy
2:50 PM 73.4 °F 44.6 °F 36% 29.98 in 6.2 mi North 12.7 mph 24.2 mph N/A   Mostly Cloudy
3:20 PM 73.4 °F 46.4 °F 38% 29.98 in 6.2 mi North 12.7 mph 24.2 mph N/A   Mostly Cloudy
3:50 PM 71.6 °F 46.4 °F 41% 29.98 in 6.2 mi North 12.7 mph 24.2 mph N/A   Mostly Cloudy
4:20 PM 73.4 °F 46.4 °F 38% 29.98 in 6.2 mi North 10.4 mph 21.9 mph N/A   Mostly Cloudy
4:50 PM 71.6 °F 46.4 °F 41% 29.98 in 6.2 mi North 17.3 mph 31.1 mph N/A   Mostly Cloudy
5:20 PM 71.6 °F 48.2 °F 43% 29.98 in 6.2 mi North 10.4 mph - N/A   Mostly Cloudy
5:50 PM 69.8 °F 48.2 °F 46% 29.98 in 6.2 mi North 11.5 mph - N/A   Mostly Cloudy
6:20 PM 69.8 °F 48.2 °F 46% 29.98 in 6.2 mi NNW 9.2 mph - N/A   Scattered Clouds
6:50 PM 69.8 °F 48.2 °F 46% 29.98 in 6.2 mi North 9.2 mph - N/A   Scattered Clouds
7:20 PM 69.8 °F 48.2 °F 46% 29.98 in 6.2 mi NNW 6.9 mph - N/A   Mostly Cloudy
7:50 PM 68.0 °F 48.2 °F 49% 30.01 in 6.2 mi North 15.0 mph 26.5 mph N/A   Mostly Cloudy
8:20 PM 68.0 °F 50.0 °F 52% 30.01 in 6.2 mi North 10.4 mph - N/A   Mostly Cloudy
8:50 PM 68.0 °F 50.0 °F 52% 29.98 in 6.2 mi NNW 10.4 mph - N/A   Scattered Clouds
9:20 PM 68.0 °F 50.0 °F 52% 29.98 in 6.2 mi NNW 6.9 mph - N/A   Scattered Clouds
9:50 PM 66.2 °F 48.2 °F 52% 29.98 in 6.2 mi NNW 10.4 mph - N/A   Scattered Clouds
10:20 PM 66.2 °F 48.2 °F 52% 29.98 in 6.2 mi NNW 11.5 mph - N/A   Scattered Clouds
10:50 PM 66.2 °F 48.2 °F 52% 29.98 in 6.2 mi NNW 12.7 mph - N/A   Scattered Clouds
11:20 PM 66.2 °F 48.2 °F 52% 29.98 in 6.2 mi NNW 5.8 mph - N/A   Scattered Clouds
11:50 PM 66.2 °F 48.2 °F 52% 29.98 in 6.2 mi Calm Calm - N/A   Scattered Clouds